AirNav   Jet Aviation Boston
 
 351 users online  

5IN9 Stangland Airport
Wolflake, Indiana, USA

GOING TO WOLFLAKE?


FAA INFORMATION EFFECTIVE 21 JUNE 2018

Location

FAA Identifier: 5IN9
Lat/Long: 41-18-58.1710N / 085-27-53.9290W
41-18.969517N / 085-27.898817W
41.3161586 / -85.4649803
(estimated)
Elevation: 924 ft. / 282 m (estimated)
Variation: 03W (1985)
From city: 2 miles SE of WOLFLAKE, IN
Time zone: UTC -4 (UTC -5 during Standard Time)
Zip code: 46701

Airport Operations

Airport use: Private use. Permission required prior to landing
Activation date: 04/1948
Control tower: no
ARTCC: CHICAGO CENTER
FSS: TERRE HAUTE FLIGHT SERVICE STATION
Attendance: UNATNDD
Wind indicator: yes
Segmented circle: no

Airport Communications

WX AWOS-3P at C62 (13 nm NE): 119.925 (260-347-2967)
WX AWOS-3 at ASW (17 nm W): 121.125 (574-269-7035)
WX AWOS-3 at SMD (17 nm SE): 124.55 (260-490-4030)
WX AWOS-3 at GWB (18 nm E): 124.15 (260-925-8225)
WX ASOS at GSH (19 nm NW): 121.45 (574-642-4231)

Nearby radio navigation aids

VOR radial/distance  VOR name  Freq  Var
OLKr022/(4.4)WEBSTER LAKE VOR110.4003W
FWAr334/23.8FORT WAYNE VORTAC117.8006W
GSHr116/28.3GOSHEN VORTAC113.7000E

 
NDB name  Hdg/Dist  Freq  Var  ID
HUNTINGTON003/27.741703WHHG .... .... --.
STURGIS187/29.938204WIRS .. .-. ...

Airport Services

Parking: hangars
Airframe service: NONE
Powerplant service: NONE
Bottled oxygen: NONE
Bulk oxygen: NONE

Runway Information

Runway 9/27

Dimensions: 1900 x 80 ft. / 579 x 24 m
Surface: turf
RUNWAY 9  RUNWAY 27
Traffic pattern: leftleft
Runway end identifier lights: nono
Obstructions: plinenone

Airport Ownership and Management from official FAA records

Ownership: Privately-owned
Owner: DON H. STANGLAND
1838 WEST 250 SOUTH
ALBION, IN 46701
Phone 219-636-7532

Airport Operational Statistics

Aircraft based on the field: 1
Single engine airplanes: 1
    
Aircraft operations: avg 85/month
85% local general aviation
15% transient general aviation

Instrument Procedures

There are no published instrument procedures at 5IN9.

Some nearby airports with instrument procedures:

C62 - Kendallville Municipal Airport (13 nm NE)
KASW - Warsaw Municipal Airport (17 nm W)
KSMD - Smith Field Airport (17 nm SE)
KGWB - De Kalb County Airport (18 nm E)
KGSH - Goshen Municipal Airport (19 nm NW)
 
Loc | Ops | Rwys | IFR | FBO | Links
Com | Nav | Svcs | Stats | Notes

City of Findlay
 
Area around 5IN9 (Stangland Airport)
 
Road maps at: MapQuest Bing Google
 
Aerial photo
No photo
 
Sectional chart

 
Airport distance calculator
Flying to Stangland Airport? Find the distance to fly.

From to 5IN9

Sunrise and sunset
Times for 16-Jul-2018
 Local
(UTC-4)
 Zulu
(UTC)
Morning civil twilight05:5109:51
Sunrise06:2310:23
Sunset21:1201:12
Evening civil twilight21:4501:45

Current date and time
Zulu (UTC)  16-Jul-2018 06:56:45
Local (UTC-4)  16-Jul-2018 02:56:45
 
METAR
KC62 
13nm NE 
160635Z AUTO 00000KT 10SM CLR 22/20 A2998 RMK AO2 T02240198
KASW 
17nm W 
160635Z AUTO 00000KT 10SM SCT110 23/22 A2997 RMK AO2
KGWB 
18nm E 
160635Z AUTO 00000KT 10SM CLR 21/21 A2999 RMK AO2
KGSH 
19nm NW 
160553Z AUTO 00000KT 7SM CLR 22/21 A2997 RMK AO2 SLP142 60000 T02220211 10306 20222 50002
KFWA 
24nm SE 
160554Z 21003KT 10SM SCT130 SCT250 22/22 A2998 RMK AO2 SLP147 T02220217 10278 20222 58001
KANQ 
26nm NE 
160635Z AUTO 00000KT 10SM FEW037 22/21 A2997 RMK AO2 TSNO
TAF
KFWA 
24nm SE 
160521Z 1606/1706 22005KT P6SM SCT100 TEMPO 1609/1613 4SM BR FM162000 29008KT P6SM VCTS BKN050CB FM170000 30007KT P6SM SCT050
NOTAMs
Click for the latest NOTAMs
NOTAMs are issued by the DoD/FAA and will open in a separate window not controlled by AirNav.

 

 
 

Would you like to see your business listed on this page?

 If your business provides an interesting product or service to pilots, flight crews, aircraft, or users of the Stangland Airport, you should consider listing it here.  To start the listing process, click on the button below
 
Add a business
 

Other Pages about Stangland Airport

Update a link
 
Copyright © AirNav, LLC. All rights reserved. Privacy Policy  Contact